7 * 24
多渠道服务支持
JILIN-1 10 是吉林一号卫星星座中的高分辨率遥感卫星,由长光卫星技术有限公司研制。该卫星主要用于提供高清晰度的地球观测图像,服务于农业、林业、城市规划、灾害监测等多个领域。JILIN-1 10 具备先进的光学成像能力,能够实现快速响应和高效数据获取,提升了我国商业遥感卫星的应用水平,推动了遥感数据的产业化和商业化进程。
数据来源 | 国际轨道数据 |
星历时间: | 2025-10-18T07:21:29+0800 6小时前 查看轨道信息 |
半长轴: | 6878.459km |
偏心率: | 0.0009603 |
轨道倾角: | 97.481° |
近地点辐角 | 56.810° |
升交点赤经 | 25.461° |
平近点角 | 303.405° |
近地点: | 493.718km |
远地点: | 506.93km |
周期: | 94.623分钟 |
每日圈数: | 15.218297 |